Home > Weather > Toamasina > Past weeks

Flag for Madagascar Past Weather in Toamasina, Madagascar — Yesterday and Last 2 Weeks

Now
70 °F

Scattered showers. Partly cloudy.


Feels Like: 70 °F
Forecast: 64 / 72 °F
Wind: 5 mph from Southwest

Location: Tamatave

Current Time: Jun 29, 2016 at 3:15:55 AM

Latest Report: Jun 29, 2016 at 2:00 AM


Visibility: N/A

Pressure: 30.15 "Hg

Humidity: 88%

Dew Point: 66 °F

Location of ToamasinaLocation

Past Weather in Toamasina — Graph

°F

Toamasina Temperature Yesterday

Maximum temperature yesterday: 79 °F (at 11:00 AM)
Minimum temperature yesterday: 64 °F (at 3:00 AM)
Average temperature yesterday: 71 °F

High & Low Weather Summary for the Past Weeks

 TemperatureHumidityPressure
High81 °F (Jun 16, 12:00 PM)100% (Jun 17, 12:00 AM)30.27 "Hg (Jun 17, 12:00 AM)
Low64 °F (Jun 14, 2:00 AM)54% (Jun 19, 1:00 PM)30.04 "Hg (Jun 16, 2:00 PM)
Average71 °F86%30.17 "Hg
* Reported Jun 14 2:00 AM — Jun 29 2:00 AM, Toamasina, Weather by CustomWeather, © 2016

Note: Actual official high and low records may vary slightly from our data, if they occured in-between our weather recording intervals... More about our weather records

Advertising

Toamasina Weather History for the Previous 24 Hours

Scroll right to see more
 ConditionsComfort  
Time TempWeatherWind HumidityBarometerVisibility
2:00 AM
Wed, Jun 29
70 °FScattered showers. Partly cloudy.5 mph88%30.15 "HgN/A
1:00 AM70 °FScattered showers. Partly cloudy.5 mph88%30.15 "HgN/A
12:00 AM70 °FScattered showers. Partly cloudy.5 mph94%30.15 "HgN/A
11:00 PM
Tue, Jun 28
70 °FScattered showers. Partly cloudy.5 mph94%30.18 "HgN/A
10:00 PM70 °FScattered showers. Partly cloudy.5 mph94%30.18 "HgN/A
9:00 PM70 °FScattered showers. Partly cloudy.5 mph94%30.18 "HgN/A
8:00 PM72 °FScattered showers. Partly cloudy.7 mph83%30.18 "HgN/A
7:00 PM72 °FScattered showers. Partly cloudy.7 mph88%30.15 "HgN/A
6:00 PM73 °FScattered showers. Partly cloudy.9 mph83%30.15 "HgN/A
5:00 PM73 °FScattered showers. Broken clouds.12 mph83%30.12 "HgN/A
4:00 PM75 °FBroken clouds.14 mph74%30.12 "HgN/A
3:00 PM79 °FScattered clouds.16 mph65%30.12 "HgN/A
2:00 PM79 °FBroken clouds.14 mph65%30.12 "HgN/A
1:00 PM79 °FScattered showers. Broken clouds.14 mph65%30.15 "HgN/A
12:00 PM79 °FBroken clouds.14 mph70%30.15 "HgN/A
11:00 AM79 °FScattered clouds.12 mph70%30.18 "HgN/A
10:00 AM75 °FScattered clouds.12 mph78%30.18 "HgN/A
9:00 AM73 °FPassing clouds.14 mph83%30.21 "HgN/A
8:00 AM68 °FScattered showers. Scattered clouds.7 mph94%30.21 "HgN/A
7:00 AM68 °FScattered showers. Broken clouds.9 mph94%30.18 "HgN/A
6:00 AM64 °FScattered showers. Partly cloudy.7 mph100%30.18 "Hg6 mi
5:00 AM64 °FLight rain. Partly cloudy.7 mph94%30.18 "Hg4 mi
4:00 AM64 °FPassing clouds.9 mph94%30.18 "HgN/A
3:00 AM64 °FPassing clouds.9 mph94%30.18 "HgN/A
Weather by CustomWeather, © 2016

See weather overviewHow to use our weather pages